Wind_Speed
10 11 13 7 8 16 19 13 6 3 3 11 9 19 14 8 6 5 18 17 19 16 17 18 17 17 16 16 15 15 13 13 12 12 12 10 10 9 9 11 10 10 11 11 11 11 11 11 10
13 10 19 14 15 19 13 10 6 8 8 6 2 8 6 5 1 14 20 20 18 15 15 15 16 15 14 14 13 13 13 13 12 11 11 10 9 9 10 11 10 10 10 11 12 11 11 11 11
11 10 12 7 12 19 12 14 10 10 8 6 9 6 8 12 17 17 17 19 17 17 17 15 15 15 14 13 12 13 13 12 11 11 11 10 10 8 9 9 9 9 9 9 11 11 10 11 11
12 7 15 19 17 18 15 11 2 13 6 6 9 10 17 16 12 15 18 18 16 16 16 15 14 14 13 12 12 12 12 11 9 9 9 8 9 8 8 8 7 7 7 8 9 9 9 9 9
12 15 13 21 20 21 13 10 8 4 3 8 12 10 12 12 13 15 17 17 15 15 15 14 13 12 13 12 11 11 10 9 8 7 7 7 7 6 6 6 6 5 5 6 6 6 6 6 8
14 18 16 24 19 16 13 13 6 7 11 9 12 7 11 5 12 17 17 18 16 12 13 13 13 12 12 12 12 12 10 8 7 6 6 5 6 5 4 5 5 4 4 4 5 5 4 3 3
20 18 21 22 21 18 17 12 4 6 9 7 11 9 9 8 16 20 22 18 16 12 10 10 10 11 10 11 11 10 10 8 6 4 5 5 4 3 2 2 2 2 3 3 3 4 5 5 4
6 5 19 15 12 14 13 9 6 8 4 5 2 6 8 8 13 18 20 13 10 10 10 9 10 11 10 10 11 10 10 8 8 5 6 7 5 4 4 5 5 3 5 2 4 5 5 6 7
7 9 19 12 9 13 7 10 8 6 4 1 6 2 8 10 11 11 13 10 5 12 11 9 10 10 10 11 11 10 9 8 9 10 9 8 8 8 8 8 8 7 8 7 6 3 4 6 7
4 12 12 9 11 9 3 9 7 2 2 3 4 5 15 12 12 9 8 8 12 10 11 11 10 10 9 10 10 10 8 7 8 8 8 8 6 7 7 7 5 4 5 5 5 5 1 4 6
2 9 10 12 8 9 8 6 3 2 2 7 8 4 16 19 16 8 7 8 8 10 11 11 10 10 10 8 8 9 7 8 8 7 5 7 6 6 5 4 5 3 2 6 6 4 4 6 6
11 11 5 8 9 8 7 8 6 5 8 9 12 8 9 27 18 9 4 1 3 10 10 9 10 9 12 7 7 7 7 8 9 6 6 4 5 5 2 2 0 1 4 5 6 8 9 10 7
8 12 3 6 7 2 5 3 10 3 7 9 12 6 9 18 23 12 10 8 7 2 12 13 12 13 12 8 4 4 11 9 7 2 6 6 6 5 2 1 5 4 5 5 8 9 10 12 9
17 10 3 15 6 4 6 1 6 5 5 7 9 4 8 15 23 20 17 15 10 7 6 7 12 11 10 6 3 2 3 3 4 6 7 6 6 3 5 5 2 3 7 9 8 8 11 12 11
12 9 10 13 5 7 9 1 7 10 9 7 4 2 6 10 22 20 19 15 12 11 12 6 6 7 6 3 4 2 3 2 8 6 3 0 9 1 2 2 4 6 8 8 9 7 9 9 6
16 8 17 2 5 1 11 9 4 11 15 9 4 3 3 3 10 17 19 13 15 15 15 14 7 6 5 5 5 4 4 4 2 3 7 6 7 2 3 4 5 7 11 11 13 12 8 4 2
6 10 3 6 14 15 12 11 9 4 14 13 6 6 3 3 6 14 19 17 18 19 17 14 10 8 9 10 9 8 9 8 5 3 2 6 5 5 6 7 7 11 11 13 12 8 4 3 4
6 5 16 12 7 13 22 24 15 8 13 12 8 8 6 6 4 9 15 19 19 21 20 13 11 10 13 14 13 11 11 8 6 1 0 0 4 4 5 9 11 8 8 8 9 7 4 3 6
15 19 22 8 1 9 22 20 24 16 14 15 11 10 11 6 6 9 16 14 16 21 20 14 10 10 12 14 12 10 8 7 4 1 2 4 2 6 5 7 7 6 6 7 8 5 4 5 2
16 22 18 7 8 10 19 22 18 21 20 16 13 11 17 13 12 12 12 22 6 9 8 10 9 11 9 12 12 12 10 6 7 3 2 3 4 5 6 6 7 6 6 7 8 6 6 5 4
17 24 18 19 16 16 13 18 20 21 23 20 13 5 17 18 19 16 11 11 10 8 7 7 6 7 9 9 11 13 12 8 7 5 3 5 5 5 7 7 7 6 5 5 5 6 5 4 3
27 17 12 9 19 21 21 11 9 23 26 24 24 17 17 21 21 21 13 11 5 5 8 10 7 6 8 9 9 9 8 7 8 6 6 3 2 4 5 7 7 6 5 5 6 7 8 8 6
22 11 14 12 7 23 8 5 9 18 26 31 29 24 25 17 20 21 7 5 4 2 0 4 7 8 8 8 8 9 9 11 10 7 6 5 2 5 6 5 3 4 5 7 8 9 9 9 9
17 16 14 13 12 10 14 14 17 19 20 31 26 19 21 27 22 22 14 7 11 10 11 4 5 7 11 10 9 9 10 10 8 8 6 5 5 3 3 3 2 4 6 7 8 9 9 9 10
14 6 5 5 4 10 15 21 21 16 15 20 15 6 14 10 22 24 20 14 12 11 10 10 5 8 11 12 9 10 12 10 8 8 6 6 5 4 1 2 3 5 6 7 8 9 8 8 9
12 12 7 5 3 10 19 9 11 11 13 19 12 12 7 5 14 25 21 19 17 14 11 16 8 6 11 12 10 11 10 9 8 9 8 9 4 5 3 2 3 5 7 10 11 11 11 10 8
5 14 12 9 13 3 7 6 5 10 17 19 20 10 8 9 16 25 28 26 17 13 11 19 14 9 7 9 10 10 11 9 9 11 10 9 9 8 8 4 3 7 8 10 11 11 9 9 8
12 5 5 1 1 3 4 5 3 10 19 22 21 17 11 19 22 14 27 23 28 9 9 19 19 12 10 9 9 10 10 10 10 12 10 10 10 11 11 6 4 6 9 10 8 10 10 9 7
10 15 8 7 4 5 1 1 2 3 5 16 10 2 2 2 13 17 32 23 24 17 7 11 18 13 15 13 10 10 11 11 10 11 10 11 14 14 14 10 5 8 8 9 11 12 10 9 8
14 9 12 6 8 9 2 7 7 7 4 6 4 4 3 6 11 12 21 22 22 19 19 12 12 13 12 15 15 12 14 14 12 12 9 18 18 20 17 12 10 8 7 8 9 11 12 10 8
Wind_Direction
80 65 80 89 80 95 93 113 37 49 136 76 146 154 158 144 133 160 140 137 134 139 137 137 132 129 129 126 123 119 123 123 117 115 111 113 113 116 115 111 112 108 108 107 103 103 101 100 103
49 76 98 106 115 98 90 91 76 48 72 63 15 179 167 168 199 151 146 136 137 142 138 137 136 131 131 127 126 129 131 123 120 125 132 128 122 117 109 106 106 102 105 105 106 108 110 112 112
70 99 83 73 100 104 106 86 98 110 99 31 23 130 95 111 134 139 139 133 142 145 144 143 139 135 130 127 129 124 120 117 115 124 133 128 116 112 104 102 101 101 102 102 106 108 107 109 117
18 49 80 89 96 87 92 122 130 128 93 354 21 100 113 92 133 130 133 137 144 146 145 143 139 138 132 127 123 123 115 118 129 127 121 115 107 106 99 98 97 100 99 100 102 104 105 101 112
54 64 101 84 93 81 99 136 133 117 26 28 13 94 100 101 135 127 135 137 145 149 146 145 140 135 133 131 125 118 116 121 121 113 112 105 112 109 111 107 105 102 105 101 100 104 110 109 108
67 80 114 85 96 82 104 151 115 42 63 59 26 81 108 137 130 141 140 138 145 147 145 145 143 142 137 129 121 116 113 105 105 108 106 111 110 114 119 122 119 121 113 114 118 120 128 126 118
74 90 96 93 90 88 111 132 128 50 43 47 20 45 129 166 127 136 149 146 141 141 142 143 143 138 131 122 115 110 103 103 106 118 136 126 113 128 119 117 137 150 143 146 152 152 162 167 180
281 62 106 103 95 88 103 104 354 357 26 24 303 342 165 165 134 130 146 134 130 142 146 147 143 135 128 120 117 112 112 113 94 94 125 134 126 112 94 105 114 131 153 142 217 189 194 201 203
264 260 111 110 100 99 77 77 55 14 0 222 4 20 166 162 153 141 146 144 161 161 155 153 147 144 140 132 130 128 127 114 101 96 93 114 119 113 102 99 102 112 105 74 68 191 231 232 234
252 174 112 96 109 61 58 34 84 55 234 209 309 140 164 173 168 162 144 151 176 172 164 158 160 152 148 144 139 135 128 115 104 99 87 83 74 74 78 87 87 89 97 58 34 53 352 280 258
141 139 116 91 121 92 109 72 115 26 248 325 12 120 168 184 179 134 105 102 179 182 172 169 170 159 161 157 147 132 121 106 97 104 95 77 83 87 98 109 106 107 56 358 356 340 329 287 271
33 143 79 133 115 116 105 86 86 351 353 354 353 43 170 176 192 175 183 34 47 190 167 179 167 176 188 189 170 149 113 119 114 91 87 92 67 114 144 148 240 348 320 321 327 316 315 312 305
47 164 308 143 171 227 137 67 5 28 335 356 3 22 169 171 195 209 233 257 279 261 192 192 177 178 189 184 160 195 150 143 145 109 111 53 30 21 350 21 41 31 333 307 322 310 315 306 297
347 218 218 142 79 226 220 192 317 326 338 346 357 34 155 173 190 215 232 244 263 295 265 159 155 160 168 163 176 310 78 79 65 49 49 59 8 326 342 352 344 311 313 314 331 327 314 299 299
329 334 168 148 31 233 228 160 330 333 300 313 340 48 109 155 190 210 231 241 269 288 305 257 174 170 178 183 212 294 11 0 340 46 44 327 355 188 38 26 320 316 309 325 330 303 300 277 300
326 344 153 155 168 282 216 240 105 298 289 278 307 297 117 129 176 211 234 251 261 275 296 271 223 212 218 221 244 268 274 277 339 151 18 14 9 14 51 318 313 342 315 307 314 288 275 274 267
353 56 3 243 310 250 256 254 219 339 275 260 265 285 251 180 184 216 229 245 261 274 282 284 243 230 246 239 233 246 263 281 284 70 47 16 351 324 343 311 322 324 320 312 307 301 310 268 256
289 295 332 313 335 241 245 241 247 236 247 268 259 284 284 231 253 237 236 244 256 268 280 286 247 230 228 229 225 230 242 281 269 96 8 178 263 322 329 320 319 348 339 334 323 323 318 272 232
273 285 296 156 163 256 243 247 225 233 224 246 241 253 272 265 252 256 250 252 266 262 272 284 236 216 217 227 228 226 234 255 247 146 61 180 267 303 302 309 338 10 20 12 5 20 26 30 289
276 283 269 180 225 307 251 259 232 231 219 249 236 268 258 251 248 253 268 246 258 223 250 273 244 205 208 219 215 216 234 241 232 204 258 301 274 276 320 331 10 0 4 15 14 28 34 53 82
265 275 272 242 213 278 236 252 209 212 214 224 219 276 273 250 272 259 254 262 245 230 222 261 226 197 199 207 210 219 234 230 194 222 264 266 269 316 321 341 348 344 350 349 346 356 0 25 70
274 276 294 337 225 232 246 251 239 214 222 218 229 247 267 249 267 249 244 243 271 215 215 247 236 221 214 216 223 231 231 231 213 202 226 224 282 316 317 326 330 330 348 343 348 340 335 336 337
268 297 293 302 222 220 222 257 199 216 236 235 235 252 245 231 258 234 250 197 214 223 67 212 241 232 233 230 225 230 221 225 233 216 214 209 267 285 299 313 301 320 346 353 352 346 343 332 320
260 266 301 284 305 303 273 309 305 254 253 234 235 262 256 259 237 239 240 251 242 265 266 286 236 245 236 235 232 231 232 232 242 231 277 276 275 268 314 308 344 352 349 357 350 358 352 342 330
254 252 313 321 318 239 297 302 290 274 226 207 223 247 260 227 228 239 238 244 257 238 242 259 255 238 246 245 234 224 238 246 230 242 233 238 240 278 302 308 0 350 343 353 350 340 342 346 338
265 232 221 205 218 284 304 252 269 270 223 198 212 248 216 222 288 245 223 231 235 231 233 252 245 233 240 241 240 225 236 242 242 248 247 249 263 237 272 288 338 334 338 338 333 328 321 315 319
282 230 244 293 275 307 285 254 269 200 195 203 205 224 271 251 217 234 232 232 225 205 215 253 249 230 246 235 236 232 231 229 236 250 258 259 244 245 269 274 316 311 328 328 337 334 328 337 319
250 238 249 264 21 311 294 236 259 225 231 230 228 244 255 290 248 211 202 232 220 203 228 253 248 249 253 246 236 235 233 237 232 244 259 259 238 244 260 264 299 301 318 345 3 347 348 354 348
245 245 250 251 238 185 220 179 145 212 221 203 210 187 303 26 235 244 221 216 211 210 217 244 243 251 269 251 250 242 239 242 239 245 246 259 251 242 248 245 257 279 320 347 350 350 351 350 349
268 268 244 231 221 239 254 190 142 136 191 208 186 253 204 239 257 248 224 180 209 220 224 231 242 247 278 261 251 251 246 240 240 241 243 271 268 255 245 243 238 249 302 340 349 350 340 343 344
Height
3174 3173 3171 3170 3175 3171 3171 3174 3173 3171 3170 3171 3173 3171 3171 3171 3171 3174 3173 3174 3175 3178 3180 3181 3183 3184 3185 3186 3186 3187 3188 3188 3189 3190 3191 3193 3195 3195 3195 3194 3196 3196 3197 3197 3196 3195 3195 3196 3197
3176 3177 3177 3173 3175 3173 3174 3174 3172 3173 3171 3171 3173 3172 3171 3172 3171 3171 3173 3175 3177 3180 3181 3182 3184 3186 3187 3188 3189 3191 3191 3190 3191 3192 3194 3196 3197 3197 3197 3196 3197 3197 3198 3198 3198 3197 3197 3197 3198
3177 3179 3178 3175 3176 3174 3177 3174 3174 3173 3174 3173 3173 3172 3172 3172 3172 3173 3175 3176 3179 3181 3183 3185 3187 3187 3188 3190 3192 3193 3193 3193 3194 3196 3197 3197 3197 3198 3197 3198 3198 3199 3199 3199 3199 3198 3198 3198 3198
3178 3181 3180 3177 3178 3178 3177 3176 3173 3174 3174 3174 3173 3173 3174 3176 3176 3175 3176 3178 3181 3183 3185 3187 3188 3189 3190 3192 3193 3194 3194 3195 3197 3198 3198 3198 3198 3199 3199 3199 3199 3200 3200 3200 3200 3200 3199 3199 3199
3180 3181 3180 3179 3179 3178 3177 3176 3176 3175 3174 3173 3173 3172 3173 3175 3178 3178 3178 3180 3184 3186 3187 3188 3189 3191 3192 3194 3195 3195 3197 3199 3199 3199 3199 3199 3199 3200 3200 3200 3201 3201 3201 3201 3201 3201 3200 3200 3201
3185 3181 3181 3179 3180 3180 3179 3178 3176 3176 3175 3174 3174 3174 3175 3176 3180 3179 3180 3183 3186 3188 3189 3190 3191 3193 3195 3196 3196 3197 3199 3200 3200 3200 3200 3200 3200 3201 3201 3201 3201 3201 3202 3202 3201 3201 3201 3201 3201
3186 3183 3181 3183 3183 3181 3180 3180 3178 3176 3176 3176 3176 3176 3177 3176 3182 3181 3184 3186 3187 3189 3191 3192 3194 3195 3196 3197 3198 3199 3199 3200 3200 3200 3200 3200 3200 3201 3202 3202 3202 3202 3202 3202 3202 3201 3201 3200 3200
3189 3186 3186 3185 3185 3185 3183 3181 3180 3179 3177 3176 3176 3176 3177 3177 3180 3183 3185 3186 3188 3190 3192 3193 3195 3196 3197 3199 3200 3200 3201 3202 3201 3200 3200 3200 3200 3201 3201 3201 3202 3201 3200 3201 3200 3200 3200 3200 3199
3189 3188 3186 3185 3184 3184 3185 3182 3180 3178 3177 3177 3177 3176 3177 3178 3179 3181 3184 3186 3189 3191 3192 3195 3196 3198 3198 3199 3200 3202 3202 3202 3202 3202 3202 3201 3201 3201 3202 3203 3202 3201 3201 3200 3200 3200 3200 3200 3199
3186 3188 3186 3185 3185 3184 3184 3183 3181 3180 3178 3177 3178 3178 3177 3178 3179 3183 3186 3189 3191 3192 3194 3196 3198 3199 3200 3201 3202 3202 3202 3203 3203 3203 3203 3204 3204 3204 3204 3204 3203 3203 3201 3201 3200 3200 3199 3198 3198
3188 3187 3186 3186 3186 3185 3185 3185 3185 3183 3182 3182 3181 3179 3179 3177 3181 3186 3189 3192 3194 3194 3195 3197 3199 3201 3201 3202 3203 3203 3203 3203 3203 3203 3203 3205 3204 3203 3203 3203 3202 3202 3202 3201 3200 3199 3199 3198 3197
3188 3188 3187 3188 3187 3186 3186 3187 3186 3185 3184 3182 3182 3181 3180 3181 3182 3187 3190 3193 3195 3196 3197 3198 3200 3201 3201 3203 3203 3203 3203 3203 3203 3203 3203 3203 3203 3203 3203 3202 3201 3200 3201 3199 3198 3197 3196 3195 3194
3185 3188 3187 3187 3188 3188 3187 3187 3185 3184 3184 3184 3183 3182 3182 3183 3185 3188 3191 3194 3195 3198 3199 3199 3201 3202 3202 3204 3204 3204 3204 3203 3203 3203 3203 3204 3203 3202 3201 3201 3202 3200 3200 3199 3196 3195 3194 3194 3192
3185 3187 3187 3186 3188 3189 3188 3186 3184 3184 3182 3183 3184 3184 3185 3185 3187 3189 3191 3193 3195 3197 3198 3199 3200 3201 3203 3203 3203 3205 3204 3203 3203 3203 3203 3202 3202 3200 3200 3201 3200 3198 3198 3196 3194 3193 3192 3191 3189
3184 3185 3187 3187 3187 3188 3188 3189 3186 3183 3183 3183 3184 3184 3184 3187 3189 3189 3190 3193 3195 3196 3197 3198 3199 3200 3200 3201 3202 3203 3202 3202 3201 3201 3201 3200 3199 3198 3198 3198 3197 3197 3196 3194 3192 3191 3190 3190 3187
3184 3183 3186 3187 3186 3189 3189 3189 3187 3185 3183 3184 3184 3184 3183 3184 3187 3189 3190 3192 3193 3195 3197 3197 3198 3199 3200 3201 3201 3201 3202 3201 3201 3201 3202 3201 3200 3200 3198 3197 3196 3194 3191 3190 3189 3188 3187 3186 3185
3183 3184 3185 3186 3186 3187 3188 3189 3187 3184 3181 3183 3183 3183 3182 3182 3183 3187 3190 3192 3193 3194 3195 3196 3197 3197 3198 3200 3200 3201 3200 3199 3201 3202 3202 3199 3199 3198 3196 3195 3194 3192 3190 3188 3187 3185 3184 3184 3184
3183 3185 3184 3184 3183 3183 3184 3184 3186 3182 3182 3182 3182 3182 3181 3181 3182 3183 3187 3191 3193 3193 3193 3194 3196 3198 3199 3200 3199 3200 3200 3200 3200 3201 3201 3199 3198 3198 3195 3194 3193 3191 3189 3188 3185 3183 3182 3181 3182
3181 3183 3183 3182 3183 3182 3180 3180 3181 3183 3182 3181 3181 3181 3181 3181 3183 3184 3187 3189 3191 3192 3192 3192 3194 3196 3198 3199 3198 3199 3199 3199 3199 3199 3199 3199 3198 3198 3196 3194 3191 3190 3188 3187 3185 3184 3183 3182 3180
3178 3179 3181 3180 3179 3181 3180 3176 3178 3180 3179 3178 3180 3180 3180 3182 3183 3184 3185 3188 3189 3191 3192 3192 3192 3194 3196 3197 3197 3197 3198 3198 3197 3198 3198 3198 3198 3196 3194 3192 3191 3190 3188 3187 3186 3185 3184 3182 3181
3174 3174 3176 3178 3176 3177 3173 3176 3174 3175 3176 3176 3176 3178 3173 3179 3180 3182 3184 3185 3188 3189 3190 3192 3192 3193 3194 3195 3195 3195 3195 3196 3196 3196 3197 3196 3196 3195 3193 3191 3192 3190 3189 3187 3186 3185 3183 3182 3181
3171 3171 3174 3174 3174 3174 3175 3173 3170 3171 3174 3173 3171 3170 3171 3173 3177 3181 3183 3184 3187 3188 3189 3190 3191 3192 3193 3193 3193 3194 3195 3196 3196 3195 3195 3195 3195 3194 3191 3191 3191 3190 3189 3187 3186 3185 3184 3182 3181
3168 3167 3169 3169 3170 3172 3170 3169 3167 3167 3165 3167 3167 3168 3171 3174 3175 3179 3183 3182 3186 3188 3189 3189 3190 3191 3191 3192 3192 3193 3194 3195 3193 3194 3195 3195 3194 3193 3191 3192 3191 3190 3188 3187 3186 3185 3184 3182 3180
3164 3164 3164 3166 3165 3164 3164 3166 3164 3163 3160 3162 3164 3168 3173 3175 3175 3178 3181 3182 3183 3187 3188 3188 3188 3188 3189 3190 3191 3191 3192 3193 3193 3193 3193 3193 3193 3192 3193 3192 3191 3190 3189 3188 3186 3184 3183 3182 3180
3160 3161 3164 3166 3166 3162 3162 3164 3160 3156 3156 3159 3166 3168 3165 3168 3172 3173 3174 3175 3178 3184 3186 3187 3187 3187 3186 3187 3189 3190 3191 3191 3192 3192 3193 3193 3193 3193 3193 3191 3190 3190 3189 3187 3185 3184 3183 3182 3179
3156 3159 3162 3167 3166 3160 3161 3158 3155 3154 3157 3162 3167 3163 3165 3165 3163 3164 3168 3170 3172 3179 3182 3184 3186 3185 3185 3185 3187 3188 3189 3190 3190 3191 3191 3191 3191 3190 3190 3190 3189 3188 3187 3186 3184 3182 3181 3180 3178
3154 3155 3160 3160 3159 3160 3157 3155 3153 3153 3155 3159 3161 3160 3164 3163 3168 3162 3166 3167 3171 3171 3178 3181 3184 3184 3184 3184 3184 3186 3186 3187 3188 3189 3189 3190 3189 3189 3188 3189 3187 3187 3186 3185 3182 3181 3179 3178 3175
3153 3155 3157 3157 3160 3160 3156 3154 3153 3152 3154 3157 3159 3161 3161 3163 3157 3153 3158 3165 3168 3170 3174 3178 3182 3182 3183 3183 3182 3183 3184 3185 3186 3186 3188 3188 3188 3187 3186 3186 3185 3186 3185 3183 3182 3181 3178 3176 3175
3152 3152 3153 3155 3158 3158 3159 3154 3153 3151 3150 3151 3157 3159 3157 3156 3154 3154 3158 3162 3165 3166 3171 3176 3179 3180 3180 3181 3181 3180 3181 3181 3183 3184 3185 3185 3186 3185 3183 3183 3183 3184 3183 3182 3181 3179 3178 3175 3173
3150 3150 3151 3152 3154 3152 3152 3152 3150 3149 3150 3150 3153 3157 3158 3157 3154 3155 3156 3159 3161 3163 3168 3173 3176 3177 3177 3178 3178 3178 3177 3177 3178 3180 3181 3182 3182 3179 3178 3178 3180 3181 3180 3179 3179 3178 3177 3174 3172